Spokane, WA

5:10 PM PDT on August 25, 2016 (GMT -0700)
Spokane International

Weather History for KGEG - September, 2012

Change the Weather History Date:

Friday, September 28, 2012

  Actual Average Record
Temperature  
Mean Temperature 64 °F 55 °F  
Max Temperature 78 °F 68 °F 89 °F (1967)
Min Temperature 50 °F 43 °F 27 °F (1984)
Degree Days  
Heating Degree Days 1 10  
Month to date heating degree days 64 164  
Since 1 July heating degree days 98 229  
Cooling Degree Days 0 0  
Month to date cooling degree days 26 37  
Year to date cooling degree days 534 448  
Growing Degree Days 14 (Base 50)    
Moisture  
Dew Point 41 °F    
Average Humidity 52    
Maximum Humidity 83    
Minimum Humidity 21    
Precipitation  
Precipitation 0.00 in 0.02 in 0.67 in (1962)
Month to date precipitation T 0.62  
Year to date precipitation 13.96 10.73  
Snow  
Snow 0.00 in 0.00 in 0.00 in (2002)
Month to date snowfall 0.0 0.0  
Since 1 July snowfall 0.0 0.0  
Since 1 September snowfall 0.0 0.0  
Snow Depth 0.00 in    
Sea Level Pressure  
Sea Level Pressure 29.95 in    
Wind  
Wind Speed 6 mph (SSW)    
Max Wind Speed 15 mph    
Max Gust Speed 18 mph    
Visibility 9 miles    
Events      
T = Trace of Precipitation, MM = Missing Value Source: NWS Daily Summary

Daily Weather History Graph

Daily Weather History Graph

Search for Another Location

Airport or City:

Trip Planner

Search our weather history database for the weather conditions in past years. The results will help you decide how hot, cold, wet, or windy it might be!

Date:

Astronomy

Sep. 28, 2012 Rise Set
Actual Time 6:45 AM PDT 6:34 PM PDT
Civil Twilight 6:15 AM PDT 7:05 PM PDT
Nautical Twilight 5:39 AM PDT 7:40 PM PDT
Astronomical Twilight 5:02 AM PDT 8:17 PM PDT
Moon 5:39 PM PDT (9/28) 5:18 AM PDT (9/28)
Length of Visible Light 12h 49m
Length of Day
11h 48m
Waxing Gibbous, 98% of the Moon is Illuminated
Sep 28
Waxing Gibbous
Sep 29
Full
Oct 8
Last Quarter
Oct 15
New
Oct 21
First Quarter

Hourly Weather History & Observations

Time (PDT) Temp. Dew Point Humidity Pressure Visibility Wind Dir Wind Speed Gust Speed Precip Events Conditions
12:53 AM 55.0 °F 39.0 °F 55% 29.97 in 10.0 mi Calm Calm - N/A   Clear
1:53 AM 55.9 °F 39.0 °F 53% 29.96 in 10.0 mi Calm Calm - N/A   Clear
2:53 AM 54.0 °F 43.0 °F 66% 29.96 in 9.0 mi Calm Calm - N/A   Clear
3:53 AM 54.0 °F 45.0 °F 72% 29.96 in 9.0 mi ENE 5.8 mph - N/A   Clear
4:53 AM 53.1 °F 45.0 °F 74% 29.95 in 9.0 mi NE 5.8 mph - N/A   Clear
5:53 AM 52.0 °F 46.0 °F 80% 29.95 in 9.0 mi ENE 3.5 mph - N/A   Clear
6:53 AM 50.0 °F 45.0 °F 83% 29.96 in 7.0 mi NE 3.5 mph - N/A   Partly Cloudy
7:53 AM 54.0 °F 46.0 °F 75% 29.97 in 8.0 mi ENE 8.1 mph - N/A   Partly Cloudy
8:53 AM 57.0 °F 46.9 °F 69% 29.99 in 10.0 mi ENE 6.9 mph - N/A   Partly Cloudy
9:53 AM 59.0 °F 46.9 °F 64% 29.99 in 9.0 mi ENE 8.1 mph - N/A   Clear
10:53 AM 64.9 °F 46.9 °F 52% 29.97 in 9.0 mi Variable 3.5 mph - N/A   Clear
11:53 AM 71.1 °F 44.1 °F 38% 29.96 in 10.0 mi NE 4.6 mph - N/A   Partly Cloudy
12:53 PM 73.0 °F 39.9 °F 30% 29.94 in 9.0 mi WSW 4.6 mph - N/A   Partly Cloudy
1:53 PM 75.9 °F 37.9 °F 25% 29.92 in 9.0 mi Calm Calm - N/A   Partly Cloudy
2:53 PM 77.0 °F 36.0 °F 23% 29.91 in 9.0 mi West 6.9 mph - N/A   Partly Cloudy
3:53 PM 78.1 °F 35.1 °F 21% 29.89 in 10.0 mi WSW 8.1 mph - N/A   Scattered Clouds
4:53 PM 77.0 °F 35.1 °F 22% 29.90 in 10.0 mi WSW 13.8 mph 18.4 mph N/A   Scattered Clouds
5:53 PM 73.9 °F 35.1 °F 24% 29.91 in 10.0 mi WSW 9.2 mph - N/A   Mostly Cloudy
6:53 PM 68.0 °F 39.0 °F 35% 29.93 in 10.0 mi WSW 8.1 mph - N/A   Mostly Cloudy
7:53 PM 64.9 °F 39.0 °F 39% 29.94 in 10.0 mi SW 6.9 mph - N/A   Mostly Cloudy
8:53 PM 64.9 °F 39.9 °F 40% 29.94 in 10.0 mi SW 4.6 mph - N/A   Overcast
9:53 PM 64.9 °F 39.9 °F 40% 29.95 in 10.0 mi SSW 5.8 mph - N/A   Overcast
10:53 PM 62.1 °F 39.9 °F 44% 29.96 in 10.0 mi SSW 5.8 mph - N/A   Overcast
11:53 PM 62.1 °F 39.9 °F 44% 29.95 in 10.0 mi SSE 4.6 mph - N/A   Mostly Cloudy